Notices

What's New in latest Release from April 7th, 2021:

- Updated Glossary, including Speed of Maximum Gust, and Total Hourly Precipitation

- Updated national and regional climate services offices contacts and prices information

- Addition of station inventory lists for 1981-2010, 1971-2000, and 1961-1990 Normals.

If you haven't already, please take our survey and provide feedback about our website: https://eccc.sondage-survey.ca/f/LanguageSelection.aspx?s=442ca660-fcf1-47c0-95a9-59707d6fd709

Hourly Data Report for April 25, 2020

MIRAMICHI RCS
NEW BRUNSWICK
Current Station Operator: ECCC - MSC

47°00'34.000" N
65°27'54.000" W
33.00 m
8100989
71744
ACQ

Download Data

Hourly Data (April 2020)
Hourly Data Report for April 25, 2020
TIME
LST
Temp Definition
°C
Dew Point Definition
°C
Rel Hum Definition
%
Precip. Amount Definition
mm

Wind Dir Definition
10's deg

Wind Spd Definition
km/h
Visibility Definition
km
Stn Press Definition
kPa
Hmdx Definition


Wind Chill Definition


Weather Definition


00:00 2.1 -9.4 42 LegendMM 1 5   100.48     LegendNANA
01:00 1.2 -9.5 45 LegendMM 3 6   100.50     LegendNANA
02:00 -1.5 -8.3 60 LegendMM 0 1   100.54   -2 LegendNANA
03:00 0.0 -9.3 50 LegendMM 31 9   100.56   -3 LegendNANA
04:00 -0.8 -9.4 52 LegendMM 31 8   100.60   -4 LegendNANA
05:00 -1.1 -9.8 52 LegendMM 30 9   100.67   -4 LegendNANA
06:00 -0.7 -9.9 50 LegendMM 30 10   100.77   -4 LegendNANA
07:00 1.3 -10.1 42 LegendMM 29 10   100.84     LegendNANA
08:00 3.3 -13.6 28 LegendMM 31 10   100.86     LegendNANA
09:00 4.6 -15.2 22 LegendMM 28 18   100.90     LegendNANA
10:00 7.1 -16.5 17 LegendMM 29 15   100.91     LegendNANA
11:00 8.4 -17.1 15 LegendMM 27 17   100.90     LegendNANA
12:00 9.6 -17.5 13 LegendMM 28 25   100.89     LegendNANA
13:00 10.3 -17.0 13 LegendMM 29 23   100.86     LegendNANA
14:00 10.9 -16.6 13 LegendMM 29 23   100.90     LegendNANA
15:00 11.0 -16.4 13 LegendMM 29 24   100.95     LegendNANA
16:00 11.2 -16.4 13 LegendMM 31 21   100.98     LegendNANA
17:00 10.9 -16.8 13 LegendMM 27 23   101.03     LegendNANA
18:00 10.2 -15.8 14 LegendMM 30 17   101.09     LegendNANA
19:00 8.9 -14.8 17 LegendMM 29 14   101.19     LegendNANA
20:00 6.1 -14.3 21 LegendMM 29 8   101.29     LegendNANA
21:00 4.7 -13.3 26 LegendMM 29 5   101.38     LegendNANA
22:00 0.6 -11.4 40 LegendMM 29 5   101.40     LegendNANA
23:00 0.8 -10.5 43 LegendMM 26 6   101.46     LegendNANA

Notes on Data Quality.

Legend

  • E = Estimated
  • M = Missing
  • NA = Not Available*
  • [empty] = Indicates an unobserved value
Date modified: